Weather History for Palmdale, CA

Change the Weather History Date:

Wednesday, June 20, 2012

  Actual Average Record
Temperature  
Mean Temperature 83 °F 76 °F  
Max Temperature 102 °F 92 °F 111 °F (1961)
Min Temperature 63 °F 60 °F 43 °F (1949)
Degree Days  
Heating Degree Days 0 0  
Month to date heating degree days 5 6  
Since 1 June heating degree days 5 6  
Since 1 July heating degree days 2824 2924  
Cooling Degree Days 18 11  
Month to date cooling degree days 232 183  
Year to date cooling degree days 479 353  
Since 1 June cooling degree days 232 183  
Growing Degree Days 32 (Base 50)    
Moisture  
Dew Point 37 °F    
Average Humidity 23    
Maximum Humidity 38    
Minimum Humidity 7    
Precipitation  
Precipitation 0.00 in 0.00 in 0.03 in (1988)
Month to date precipitation 0.00 0.08  
Year to date precipitation 1.79 5.31  
Since 1 July precipitation 3.72 8.29  
Snow  
Snow 0.00 in - 0.00 in (1973)
Month to date snowfall 0.0  
Since 1 June snowfall 0.0  
Since 1 July snowfall 0.0  
Snow Depth 0.00 in    
Sea Level Pressure  
Sea Level Pressure 29.75 in    
Wind  
Wind Speed 9 mph (SW)    
Max Wind Speed 22 mph    
Max Gust Speed 25 mph    
Visibility 10 miles    
Events      
T = Trace of Precipitation, MM = Missing Value Source: NWS Daily Summary

Daily Weather History Graph

Daily Weather History Graph

Search for Another Location

Airport:

Trip Planner

Search our weather history database for the weather conditions in past years. The results will help you decide how hot, cold, wet, or windy it might be!

Date:

Astronomy

Jun. 20, 2012 Rise Set
Actual Time 5:39 AM PDT 8:08 PM PDT
Civil Twilight 5:10 AM PDT 8:37 PM PDT
Nautical Twilight 4:33 AM PDT 9:14 PM PDT
Astronomical Twilight 3:53 AM PDT 9:54 PM PDT
Moon 6:41 AM PDT 9:01 PM PDT
Length of Visible Light 15h 27m
Length of Day
14h 28m
New Moon, 1% of the Moon is Illuminated
Jun 20
New Moon
Jun 26
First Quarter
Jul 3
Full
Jul 10
Last Quarter
Jul 18
New

Hourly Weather History & Observations

Time (PDT) Temp. Dew Point Humidity Pressure Visibility Wind Dir Wind Speed Gust Speed Precip Events Conditions
12:53 AM 70.0 °F 37.0 °F 30% 29.74 in 10.0 mi South 8.1 mph - N/A   Clear
1:53 AM 66.0 °F 37.0 °F 34% 29.74 in 10.0 mi SSW 8.1 mph - N/A   Clear
2:53 AM 66.9 °F 37.0 °F 33% 29.73 in 10.0 mi SSW 8.1 mph - N/A   Clear
3:53 AM 66.0 °F 37.9 °F 36% 29.73 in 10.0 mi SW 8.1 mph - N/A   Clear
4:53 AM 64.9 °F 37.0 °F 36% 29.74 in 10.0 mi SW 9.2 mph - N/A   Clear
5:53 AM 64.0 °F 36.0 °F 35% 29.75 in 10.0 mi SW 10.4 mph - N/A   Clear
6:53 AM 70.0 °F 36.0 °F 29% 29.76 in 10.0 mi SSW 6.9 mph - N/A   Clear
7:53 AM 77.0 °F 33.1 °F 20% 29.76 in 10.0 mi SSW 3.5 mph - N/A   Clear
8:53 AM 81.0 °F 30.9 °F 16% 29.78 in 10.0 mi WNW 3.5 mph - N/A   Clear
9:53 AM 87.8 °F 26.6 °F 11% 29.86 in 10.0 mi NNW 8.1 mph - N/A   Clear
10:53 AM 90.0 °F 28.0 °F 11% 29.77 in 10.0 mi NE 4.6 mph - N/A   Clear
11:53 AM 93.0 °F 28.9 °F 10% 29.76 in 10.0 mi NNE 3.5 mph - N/A   Clear
12:53 PM 96.1 °F 28.0 °F 9% 29.75 in 10.0 mi Variable 6.9 mph 17.3 mph N/A   Clear
1:53 PM 99.0 °F 26.1 °F 8% 29.72 in 10.0 mi Variable 6.9 mph - N/A   Clear
2:53 PM 99.0 °F 23.0 °F 7% 29.71 in 10.0 mi Calm Calm - N/A   Clear
3:39 PM 98.6 °F 42.8 °F 15% 29.79 in 10.0 mi SW 18.4 mph - N/A   Clear
3:53 PM 97.0 °F 42.1 °F 15% 29.70 in 10.0 mi SW 19.6 mph 25.3 mph N/A   Clear
4:53 PM 95.0 °F 46.0 °F 19% 29.70 in 10.0 mi SW 18.4 mph - N/A   Clear
5:53 PM 91.9 °F 45.0 °F 20% 29.70 in 10.0 mi WSW 18.4 mph - N/A   Clear
6:53 PM 88.0 °F 44.1 °F 22% 29.72 in 10.0 mi WSW 16.1 mph - N/A   Clear
7:53 PM 84.0 °F 43.0 °F 24% 29.73 in 10.0 mi WSW 9.2 mph - N/A   Clear
8:53 PM 82.0 °F 43.0 °F 25% 29.74 in 10.0 mi SW 12.7 mph - N/A   Clear
9:53 PM 79.0 °F 44.1 °F 29% 29.77 in 10.0 mi West 3.5 mph - N/A   Clear
10:53 PM 77.0 °F 44.1 °F 31% 29.78 in 10.0 mi SSW 6.9 mph - N/A   Clear
11:53 PM 73.9 °F 46.0 °F 37% 29.77 in 10.0 mi South 6.9 mph - N/A   Clear